Content
SEND FEEDBACK

Daily
Averages
Monthly
Summary
United States of America

TAMUNING, GUAM


Home > North America > United States > Guam
Elevation: 250 feet     Latitude: 13 29N     Longitude: 144 47E

WEATHER
 
SELECT A DAY
Number of Records: 351,467;   Date Range: 1/1/95 - 10/18/14
 
SHARE

PRINT THIS DATA

[ ← Previous Day ]
WEATHER ALMANAC - MARCH 24, 2013
[ Next Day → ]
[ °C ]   °F
Weather ElementAverageHighLow
Temperature78.5 °F84.2 °F (3:14 pm)75.2 °F (12:19 am)
Dewpoint74.3 °F75.2 °F (1:07 am)71.6 °F (8:12 pm)
Humidity87.1 %100 % (1:38 am)70 % (3:14 pm)
Barometer29.86 in29.91 in (8:14 am)29.80 in (3:55 pm)
Wind Speed14.1 mph23 mph (7:41 am)
Wind Gust28.8 mph (7:41 am)
Weather ElementAverage
Visibility9.5 mi
Wind DirectionENE (71.7 °)

Weather ElementTotal
Precipitation---
Cooling Degree Days14.7 (Base 65)
Growing Degree Days29.7 (Base 50)
Averaged from 96 records on March 24, 2013
WEATHER CONDITIONS BREAKOUT
WIND DIRECTION BREAKOUT
WEATHER BY HOUR - MARCH 24, 2013
[ °C ]   °F
Local TimeTemperatureDewpointHumidityBarometerVisibilityWind DirectionWind SpeedGust SpeedPrecipitationEventsConditions
12:19 AM75.2 °F73.4 °F94 %29.89 in10.0 miEast (100°)6.9 mphOvercast
12:22 AM75.2 °F73.4 °F94 %29.89 in10.0 miEast (100°)5.8 mphOvercast
12:55 AM75.6 °F73.8 °F94 %29.88 in10.0 miEast (80°)5.8 mphOvercast
1:07 AM77.0 °F75.2 °F94 %29.88 in9.0 miEast (80°)6.9 mphLight Drizzle
1:10 AM77.0 °F75.2 °F94 %29.87 in9.0 miENE (70°)9.2 mphLight Drizzle
1:14 AM77.0 °F75.2 °F94 %29.87 in9.0 miENE (70°)9.2 mphLight Drizzle
1:15 AM77.0 °F75.2 °F94 %29.87 in10.0 miENE (70°)9.2 mphMostly Cloudy
1:28 AM77.0 °F75.2 °F94 %29.87 in10.0 miENE (60°)9.2 mphMostly Cloudy
1:30 AM77.0 °F75.2 °F94 %29.87 in10.0 miENE (60°)9.2 mphMostly Cloudy
1:38 AM75.2 °F75.2 °F100 %29.86 in10.0 miENE (60°)9.2 mphMostly Cloudy
1:41 AM75.2 °F73.4 °F94 %29.86 in10.0 miENE (60°)9.2 mphMostly Cloudy
1:55 AM75.9 °F74.5 °F95 %29.86 in10.0 miENE (70°)6.9 mphMostly Cloudy
2:44 AM77.0 °F75.2 °F94 %29.85 in9.0 miNE (50°)8.1 mphRainLight Rain
2:45 AM77.0 °F75.2 °F94 %29.85 in8.0 miENE (60°)9.2 mphRainLight Rain
2:51 AM77.0 °F75.2 °F94 %29.85 in6.0 miENE (60°)11.5 mphRainLight Rain
2:53 AM77.0 °F75.2 °F94 %29.85 in6.0 miENE (60°)13.8 mphRainLight Rain
2:55 AM76.8 °F75.0 °F94 %29.85 in7.0 miENE (60°)12.7 mphRainLight Rain
2:58 AM77.0 °F75.2 °F94 %29.85 in10.0 miENE (60°)12.7 mphMostly Cloudy
3:00 AM77.0 °F75.2 °F94 %29.85 in10.0 miENE (60°)13.8 mphMostly Cloudy
3:02 AM77.0 °F75.2 °F94 %29.84 in10.0 miENE (60°)11.5 mphMostly Cloudy
3:20 AM77.0 °F75.2 °F94 %29.84 in10.0 miENE (70°)11.5 mphMostly Cloudy
3:25 AM77.0 °F75.2 °F94 %29.84 in10.0 miENE (60°)8.1 mphMostly Cloudy
3:30 AM77.0 °F75.2 °F94 %29.84 in9.0 miEast (90°)6.9 mphRainRain
3:45 AM77.0 °F75.2 °F94 %29.84 in10.0 miENE (70°)12.7 mphMostly Cloudy
3:55 AM76.3 °F73.4 °F91 %29.84 in10.0 miENE (60°)12.7 mph0.00 inMostly Cloudy
4:00 AM77.0 °F73.4 °F89 %29.84 in10.0 miENE (70°)11.5 mphScattered Clouds
4:07 AM77.0 °F75.2 °F94 %29.88 in10.0 miENE (70°)11.5 mphScattered Clouds
4:41 AM77.0 °F75.2 °F94 %29.84 in10.0 miENE (60°)15.0 mphMostly Cloudy
4:43 AM77.0 °F75.2 °F94 %29.84 in10.0 miENE (60°)13.8 mphMostly Cloudy
4:55 AM77.4 °F75.2 °F93 %29.85 in10.0 miENE (70°)12.7 mphScattered Clouds
5:45 AM77.0 °F75.2 °F94 %29.86 in10.0 miENE (70°)10.4 mphMostly Cloudy
5:55 AM77.2 °F75.0 °F93 %29.86 in10.0 miENE (60°)10.4 mphMostly Cloudy
6:18 AM77.0 °F75.2 °F94 %29.86 in10.0 miENE (70°)10.4 mphScattered Clouds
6:28 AM77.0 °F75.2 °F94 %29.86 in4.0 miENE (60°)13.8 mphRainHeavy Rain
6:29 AM77.0 °F73.4 °F89 %29.86 in3.0 miENE (60°)12.7 mphRainHeavy Rain
6:33 AM77.0 °F73.4 °F89 %29.87 in3.0 miENE (60°)11.5 mphRainLight Rain
6:39 AM77.0 °F75.2 °F94 %29.87 in8.0 miENE (60°)12.7 mphMostly Cloudy
6:44 AM77.0 °F75.2 °F94 %29.87 in10.0 miENE (70°)13.8 mphScattered Clouds
6:51 AM77.0 °F75.2 °F94 %29.88 in10.0 miENE (70°)13.8 mphMostly Cloudy
6:55 AM77.4 °F75.2 °F93 %29.88 in10.0 miENE (70°)13.8 mphMostly Cloudy
6:59 AM77.0 °F75.2 °F94 %29.88 in10.0 miENE (70°)15.0 mph21.9 mphMostly Cloudy
7:04 AM77.0 °F75.2 °F94 %29.88 in10.0 miEast (80°)13.8 mphScattered Clouds
7:15 AM77.0 °F75.2 °F94 %29.88 in10.0 miENE (60°)9.2 mphMostly Cloudy
7:19 AM77.0 °F75.2 °F94 %29.88 in8.0 miENE (60°)12.7 mphRainLight Rain
7:29 AM77.0 °F75.2 °F94 %29.89 in7.0 miENE (70°)16.1 mphRainLight Rain
7:30 AM78.8 °F75.2 °F89 %29.89 in8.0 miENE (60°)15.0 mphRainLight Rain
7:32 AM78.8 °F75.2 °F89 %29.89 in10.0 miENE (70°)17.3 mph23.0 mphMostly Cloudy
7:33 AM78.8 °F75.2 °F89 %29.90 in10.0 miENE (70°)17.3 mph23.0 mphMostly Cloudy
7:41 AM78.8 °F75.2 °F89 %29.89 in10.0 miENE (70°)23.0 mph28.8 mphMostly Cloudy
7:42 AM78.8 °F75.2 °F89 %29.89 in10.0 miEast (80°)21.9 mph28.8 mphMostly Cloudy
7:43 AM78.8 °F75.2 °F89 %29.89 in10.0 miEast (80°)21.9 mph28.8 mphMostly Cloudy
7:44 AM78.8 °F75.2 °F89 %29.89 in10.0 miEast (80°)21.9 mph28.8 mphMostly Cloudy
7:48 AM78.8 °F73.4 °F83 %29.90 in10.0 miEast (80°)20.7 mphMostly Cloudy
7:55 AM78.8 °F74.5 °F87 %29.90 in10.0 miEast (80°)18.4 mph0.00 inMostly Cloudy
8:14 AM78.8 °F75.2 °F89 %29.91 in10.0 miEast (80°)17.3 mphMostly Cloudy
8:30 AM78.8 °F75.2 °F89 %29.91 in10.0 miEast (90°)17.3 mphMostly Cloudy
8:32 AM80.6 °F75.2 °F84 %29.91 in10.0 miEast (90°)20.7 mphMostly Cloudy
8:36 AM80.6 °F75.2 °F84 %29.91 in10.0 miEast (80°)18.4 mph25.3 mphScattered Clouds
8:55 AM81.1 °F74.7 °F81 %29.91 in10.0 miEast (90°)19.6 mph26.5 mphScattered Clouds
9:55 AM82.0 °F74.3 °F77 %29.91 in10.0 miEast (90°)17.3 mphScattered Clouds
10:55 AM83.7 °F73.9 °F72 %29.90 in10.0 miEast (100°)16.1 mphPartly Cloudy
11:55 AM83.5 °F74.5 °F74 %29.88 in10.0 miEast (90°)13.8 mphClear
12:55 PM84.0 °F74.5 °F73 %29.86 in10.0 miEast (90°)15.0 mphPartly Cloudy
1:55 PM83.8 °F75.0 °F75 %29.83 in10.0 miEast (90°)12.7 mphPartly Cloudy
2:55 PM83.1 °F74.3 °F75 %29.81 in10.0 miENE (70°)17.3 mphScattered Clouds
3:00 PM82.4 °F73.4 °F74 %29.81 in10.0 miENE (70°)18.4 mphMostly Cloudy
3:14 PM84.2 °F73.4 °F70 %29.81 in10.0 miENE (70°)16.1 mphScattered Clouds
3:55 PM83.1 °F73.9 °F74 %29.80 in10.0 miENE (70°)15.0 mph21.9 mphScattered Clouds
4:03 PM82.4 °F73.4 °F74 %29.81 in10.0 miENE (70°)17.3 mphMostly Cloudy
4:10 PM82.4 °F73.4 °F74 %29.80 in10.0 miENE (70°)18.4 mphScattered Clouds
4:20 PM82.4 °F73.4 °F74 %29.80 in10.0 miEast (80°)16.1 mphMostly Cloudy
4:25 PM82.4 °F73.4 °F74 %29.80 in10.0 miENE (70°)16.1 mphScattered Clouds
4:55 PM81.5 °F73.6 °F77 %29.81 in10.0 miEast (80°)16.1 mphPartly Cloudy
5:55 PM79.9 °F73.6 °F81 %29.81 in10.0 miEast (80°)16.1 mphScattered Clouds
6:25 PM78.8 °F73.4 °F83 %29.82 in10.0 miENE (60°)13.8 mphMostly Cloudy
6:29 PM78.8 °F73.4 °F83 %29.82 in10.0 miENE (70°)13.8 mphScattered Clouds
6:31 PM78.8 °F73.4 °F83 %29.82 in10.0 miENE (70°)15.0 mphMostly Cloudy
6:36 PM78.8 °F73.4 °F83 %29.82 in10.0 miENE (70°)16.1 mphScattered Clouds
6:55 PM78.4 °F72.7 °F82 %29.82 in10.0 miENE (70°)15.0 mphPartly Cloudy
7:52 PM78.8 °F73.4 °F83 %29.84 in10.0 miEast (80°)15.0 mphMostly Cloudy
7:55 PM78.6 °F73.0 °F83 %29.84 in10.0 miENE (70°)18.4 mphMostly Cloudy
8:12 PM78.8 °F71.6 °F78 %29.84 in10.0 miEast (80°)17.3 mphScattered Clouds
8:49 PM78.8 °F71.6 °F78 %29.86 in10.0 miENE (70°)18.4 mphMostly Cloudy
8:55 PM78.6 °F72.5 °F81 %29.86 in10.0 miENE (70°)17.3 mphMostly Cloudy
9:04 PM78.8 °F71.6 °F78 %29.86 in10.0 miENE (70°)18.4 mphScattered Clouds
9:41 PM78.8 °F73.4 °F83 %29.86 in10.0 miENE (70°)13.8 mphMostly Cloudy
9:47 PM78.8 °F73.4 °F83 %29.86 in10.0 miENE (70°)13.8 mphScattered Clouds
9:54 PM78.8 °F73.4 °F83 %29.86 in10.0 miENE (70°)17.3 mphMostly Cloudy
9:55 PM78.3 °F72.5 °F82 %29.87 in10.0 miEast (80°)18.4 mphMostly Cloudy
10:06 PM78.8 °F73.4 °F83 %29.87 in10.0 miENE (70°)13.8 mphScattered Clouds
10:08 PM78.8 °F73.4 °F83 %29.87 in10.0 miEast (80°)16.1 mphMostly Cloudy
10:11 PM78.8 °F73.4 °F83 %29.87 in10.0 miEast (80°)12.7 mphScattered Clouds
10:12 PM78.8 °F73.4 °F83 %29.87 in10.0 miENE (70°)13.8 mphMostly Cloudy
10:28 PM78.8 °F73.4 °F83 %29.87 in10.0 miENE (70°)12.7 mphScattered Clouds
10:55 PM78.1 °F73.2 °F85 %29.86 in10.0 miENE (60°)16.1 mphPartly Cloudy
11:55 PM77.9 °F73.0 °F85 %29.85 in10.0 miENE (70°)16.1 mphScattered Clouds
Hourly data recorded from PGUA, located miles away from Tamuning, Guam







STORIES FROM OUR PARTNERS